Hauptseite
METAR-TAF:

METAR-TAF

Flughäfen :

Gibraltar, Gibraltar

Flughafen Gibraltar

Breite: 36-09N, Länge: 005-21W, Höhe: 5 m

Beobachtung

Neuester Wetterbericht von vor 1 Stunde und 10 Minuten, um 10:50 UTC
Wind 6 kt aus Südwest
Temperatur 25°C
Luftfeuchtigkeit 74%
Luftdruck 1019 hPa
Sichtweite 10 km oder mehr
Leicht bewölkt in der Höhe von 2200 ft

METAR: LXGB 221050Z 22006KT 9999 FEW022 25/20 Q1019 NOSIG

Zeit: 14:00 (12:00 UTC)

Prognose

Neuester Wetterbericht von vor 1 Stunde und 58 Minuten, um 10:02 UTC
Gültige Prognose vom 22 um 12 UTC bis 22 um 21 UTC
Wind 4 kt aus unterschiedlichen Richtungen
Sichtweite 10 km oder mehr
Leicht bewölkt in der Höhe von 2200 ft
Wahrscheinlichkeit 30% :
Zeitweise
vom 22 um 12 UTC bis 22 um 18 UTC
Wind 13 kt aus Süd

TAF: LXGB 221002Z 2212/2221 VRB04KT 9999 FEW022 PROB30 TEMPO 2212/2218 19013KT 520001

Wetterbeobachtungen und Prognosen von mehr als 4000 Flughäfen (METAR und TAF Bericht).

Die verfügbaren Stationen werden durch gelbe und rote Markierungen auf der Karte dargestellt.

Führen Sie die Maus auf sie, um den Namen der Station zu sehen.

Darauf klicken, um die Beobachtung von Wetterbeobachtungen und Prognosen zu sehen.

Um die Karte zu ändern : klicken Sie auf den grünen Tasten mit einem schwarzen Kreuz Zum Vergrößern, auf den grünen Button mit einem Gedankenstrich zu verkleinern, oder auf die grünen Pfeile für benachbarte Karten.


METAR-TAF: